Content
SEND FEEDBACK

Daily
Averages
Monthly
Summary
United States of America

ENTERPRISE, ALABAMA


Home > North America > United States > Alabama
Elevation: 298 feet     Latitude: 31 17N     Longitude: 085 43W

WEATHER
 
SELECT A DAY
Number of Records: 63,269;   Date Range: 2/10/98 - 7/26/14
 
SHARE

PRINT THIS DATA

[ ← Previous Day ]
WEATHER ALMANAC - MARCH 13, 2014
[ Next Day → ]
[ °C ]   °F
Weather ElementAverageHighLow
Temperature47.7 °F61 °F (3:53 pm)36 °F (6:53 am)
Dewpoint29.4 °F35.1 °F (9:11 pm)26.1 °F (9:53 am)
Humidity52.3 %89 % (11:53 pm)28 % (2:53 pm)
Barometer30.20 in30.26 in (10:53 pm)30.09 in (1:53 am)
Wind Speed5.2 mph16.1 mph (11:53 am)
Wind Gust25.3 mph (11:53 am)
Weather ElementAverage
Visibility8.8 mi
Wind DirectionSSE (172.4 °)

Weather ElementTotal
Precipitation---
Heating Degree Days16.5 (Base 65)
Averaged from 29 records on March 13, 2014
WEATHER CONDITIONS BREAKOUT
WIND DIRECTION BREAKOUT
WEATHER BY HOUR - MARCH 13, 2014
[ °C ]   °F
Local TimeTemperatureDewpointHumidityBarometerVisibilityWind DirectionWind SpeedGust SpeedPrecipitationEventsConditions
1:53 AM43.0 °F28.9 °F58 %30.09 in10.0 miNNW (340°)8.1 mphClear
2:53 AM41.0 °F27.0 °F57 %30.09 in10.0 miNorth (350°)5.8 mphClear
3:53 AM39.0 °F28.0 °F65 %30.11 in10.0 miNNW (340°)5.8 mphClear
4:53 AM37.9 °F27.0 °F65 %30.12 in10.0 miNNW (340°)3.5 mphClear
5:53 AM37.0 °F27.0 °F67 %30.15 in10.0 miCalmClear
6:53 AM36.0 °F27.0 °F70 %30.17 in10.0 miCalmClear
7:53 AM39.0 °F28.9 °F67 %30.20 in10.0 miVariable3.5 mphClear
8:53 AM45.0 °F28.0 °F52 %30.23 in10.0 miNNW (340°)8.1 mphClear
9:53 AM48.0 °F26.1 °F42 %30.23 in10.0 miNorth (350°)10.4 mph20.7 mphClear
10:53 AM53.1 °F27.0 °F37 %30.23 in10.0 miNorth (350°)11.5 mph24.2 mphClear
11:53 AM55.0 °F26.1 °F33 %30.22 in10.0 miNorth (350°)16.1 mph25.3 mphClear
12:53 PM57.9 °F27.0 °F31 %30.21 in10.0 miNorth (10°)9.2 mph21.9 mphClear
1:53 PM59.0 °F27.0 °F29 %30.18 in10.0 miNW (320°)12.7 mph21.9 mphClear
2:53 PM60.1 °F27.0 °F28 %30.17 in10.0 miNorth (350°)12.7 mph20.7 mphClear
3:53 PM61.0 °F28.0 °F29 %30.17 in10.0 miNNW (340°)12.7 mphClear
4:53 PM61.0 °F28.0 °F29 %30.17 in10.0 miNW (320°)10.4 mph19.6 mphClear
5:53 PM59.0 °F28.0 °F31 %30.17 in10.0 miNorth (10°)6.9 mphClear
6:53 PM55.0 °F28.0 °F35 %30.21 in10.0 miNorth (350°)3.5 mphClear
7:39 PM50.0 °F30.9 °F48 %30.21 in10.0 miNNE (20°)3.5 mphScattered Clouds
7:46 PM48.9 °F30.9 °F50 %30.22 in10.0 miCalmMostly Cloudy
7:53 PM48.0 °F32.0 °F54 %30.22 in10.0 miCalmMostly Cloudy
8:21 PM45.0 °F33.1 °F63 %30.22 in9.0 miCalmOvercast
8:51 PM51.8 °F30.2 °F44 %30.24 in1.8 miCalmHaze
8:53 PM50.0 °F30.9 °F48 %30.24 in1.8 miCalmHaze
8:59 PM44.1 °F34.0 °F68 %30.24 in3.0 miSSE (160°)3.5 mphHaze
9:11 PM43.0 °F35.1 °F74 %30.25 in10.0 miCalmScattered Clouds
9:53 PM41.0 °F34.0 °F76 %30.25 in5.0 miCalmHaze
10:53 PM39.9 °F34.0 °F79 %30.26 in6.0 miNorth (360°)3.5 mphHaze
11:53 PM36.0 °F33.1 °F89 %30.25 inCalmClear
Hourly data recorded from KLOR, located miles away from Enterprise, Alabama







STORIES FROM OUR PARTNERS